Regional Weather Roundup
Issued by NWS Sioux Falls, SD

Home | Current Version | Previous Version | Graphics & Text | Print | Product List | Glossary Off
Versions: 1 2 3 4 5 6 7 8 9 10 11 12 13 14 15 16 17 18 19 20 21 22 23 24 25 26 27 28 29 30 31 32 33 34 35 36 37 38 39 40 41 42 43 44 45 46 47 48 49 50

000
ASUS43 KFSD 210002
RWRFSD

WEATHER ROUNDUP FOR SE SOUTH DAKOTA/SW MINNESOTA/NW IOWA
NATIONAL WEATHER SERVICE SIOUX FALLS SD
700 PM CDT WED SEP 20 2017

NOTE: "FAIR" INDICATES FEW OR NO CLOUDS BELOW 12,000 FEET WITH NO
SIGNIFICANT WEATHER AND OR OBSTRUCTIONS TO VISIBILITY.


SDZ038>040-050-052>070-210100-
SOUTHEAST SOUTH DAKOTA

CITY           SKY/WX    TMP DP  RH WIND       PRES   REMARKS
BROOKINGS      CLEAR     69  47  45 SW3       29.87R
CHAMBERLAIN    CLEAR     73  38  27 S3        29.82R
6HR MIN TEMP:  70; 6HR MAX TEMP:  78;

HURON          CLEAR     70  43  37 SE9       29.82R
6HR MIN TEMP:  68; 6HR MAX TEMP:  74;

MADISON        FAIR      64  46  52 S6        29.88R
MITCHELL       CLEAR     72  44  36 S6        29.84R
6HR MIN TEMP:  69; 6HR MAX TEMP:  76;

SIOUX FALLS    CLEAR     67  48  50 SW5       29.87R
6HR MIN TEMP:  65; 6HR MAX TEMP:  74;

WINNER         FAIR      71  39  31 S8        29.82R
YANKTON        CLEAR     69  50  50 SE5       29.87R
$$

MNZ071-072-080-081-089-090-097-098-210100-
SOUTHWEST MINNESOTA

CITY           SKY/WX    TMP DP  RH WIND       PRES   REMARKS
FAIRMONT       CLEAR     70  50  49 NE3       29.88S
JACKSON        CLEAR     70  50  49 CALM      29.89R
LUVERNE        CLEAR     68  45  42 SW3       29.88R
MARSHALL       CLEAR     68  50  52 S6        29.87R
6HR MIN TEMP:  67; 6HR MAX TEMP:  73;

MONTEVIDEO     CLEAR     70  46  43 CALM      29.86R
PIPESTONE      CLEAR     66  52  59 CALM      29.88S
REDWOOD FALLS  CLEAR     68  48  48 E3        29.86R
TRACY          CLEAR     67  51  57 CALM      29.88R
WINDOM         CLEAR     70  48  46 CALM      29.88R
WORTHINGTON    CLEAR     69  46  43 CALM      29.89R
$$

IAZ001>003-012>014-020>022-031-032-NEZ013-014-SDZ071-210100-
NORTHWEST IOWA

CITY           SKY/WX    TMP DP  RH WIND       PRES   REMARKS
CHEROKEE       CLEAR     70  53  55 CALM      29.87S
DENISON        CLEAR     72  55  56 CALM      29.89R
ESTHERVILLE    CLEAR     67  56  67 CALM      29.87S
LE MARS        CLEAR     70  54  56 CALM      29.87S
ORANGE CITY    CLEAR     72  46  40 CALM      29.88R
SHELDON        CLEAR     66  59  77 CALM      29.86S
SIOUX CITY     CLEAR     72  48  42 NE5       29.87R
6HR MIN TEMP:  69; 6HR MAX TEMP:  77;

SPENCER        CLEAR     71  49  45 E3        29.88S
6HR MIN TEMP:  71; 6HR MAX TEMP:  76;

STORM LAKE     CLEAR     70  48  46 N5        29.88S
$$

ABBREVIATIONS USED IN REMARKS
   TC - TEMPERATURE IN CELSIUS
  WCI - WIND CHILL INDEX
   HX - HEAT INDEX
  VSB - VISIBILITY





USA.gov is the U.S. government's official web portal to all federal, state and local government web resources and services.